C2862 Weather Reports


time (UTC)temp
C
wind
direction
speed
KPH
gust
KPH
rain 1hr
cm
rain 24hr
cm
rain mn
cm
humidity
%
barometer
mb
20260506013605 25 0 8.0 20.9 0.00 0.00 0.00 53 1006.7
20260506010259 25 116 6.4 24.1 0.00 0.00 0.00 51 1006.2
20260506005316 25 94 6.4 22.5 0.00 0.00 0.00 50 1006.3
20260506004253 25 126 8.0 22.5 0.00 0.00 0.00 49 1006.2
20260506003235 26 115 6.4 22.5 0.00 0.00 0.00 47 1005.9
20260506001027 26 118 8.0 19.3 0.00 0.00 0.00 45 1005.8
20260506000010 26 132 8.0 27.4 0.00 0.00 0.00 44 1005.6
20260505235007 26 132 8.0 27.4 0.00 0.00 0.00 44 1005.7
20260505233934 26 136 9.7 24.1 0.00 0.00 0.00 43 1005.5
20260505232934 27 168 6.4 24.1 0.00 0.00 0.00 42 1005.4
20260505231945 27 140 8.0 20.9 0.00 0.00 0.00 41 1005.3
20260505231004 27 139 12.9 25.7 0.00 0.00 0.00 41 1005.2
20260505230028 27 124 11.3 25.7 0.00 0.00 0.00 40 1005.0
20260505225036 27 173 14.5 27.4 0.00 0.00 0.00 40 1005.0
20260505222912 28 145 9.7 32.2 0.00 0.00 0.00 40 1004.8
20260505221917 28 107 14.5 37.0 0.00 0.00 0.00 39 1004.8
20260505220912 28 109 12.9 41.8 0.00 0.00 0.00 39 1004.6
20260505215936 28 205 16.1 41.8 0.00 0.00 0.00 39 1004.7
20260505214902 28 131 9.7 32.2 0.00 0.00 0.00 40 1004.6
20260505213830 28 127 14.5 40.2 0.00 0.00 0.00 40 1004.4
20260505212856 28 140 17.7 40.2 0.00 0.00 0.00 39 1004.2
20260505211904 28 128 16.1 38.6 0.00 0.00 0.00 40 1004.3
20260505210905 28 137 16.1 33.8 0.00 0.00 0.00 40 1004.2
20260505203618 30 111 12.9 29.0 0.00 0.00 0.00 39 1004.3
20260505202555 29 105 16.1 37.0 0.00 0.00 0.00 39 1004.4
20260505201534 30 112 14.5 37.0 0.00 0.00 0.00 38 1004.5
20260505200530 30 98 14.5 35.4 0.00 0.00 0.00 38 1004.5
20260505195539 30 170 14.5 43.5 0.00 0.00 0.00 39 1004.5
20260505194512 30 110 16.1 43.5 0.00 0.00 0.00 39 1004.5
20260505193456 30 99 12.9 40.2 0.00 0.00 0.00 40 1004.7
20260505192436 30 106 12.9 40.2 0.00 0.00 0.00 39 1005.0
20260505191456 30 103 14.5 33.8 0.00 0.00 0.00 40 1005.1
20260505190446 30 80 16.1 40.2 0.00 0.00 0.00 39 1005.1
20260505185441 30 112 12.9 40.2 0.00 0.00 0.00 41 1005.2
20260505184413 30 101 12.9 38.6 0.00 0.00 0.00 41 1005.5
20260505183358 30 144 12.9 38.6 0.00 0.00 0.00 42 1005.7
20260505182407 30 171 12.9 33.8 0.00 0.00 0.00 43 1005.6
20260505181346 30 100 11.3 33.8 0.00 0.00 0.00 44 1005.6
20260505180402 30 99 14.5 33.8 0.00 0.00 0.00 43 1005.7
20260505173159 29 115 12.9 32.2 0.00 0.00 0.00 46 1006.1
20260505172209 30 105 9.7 32.2 0.00 0.00 0.00 46 1006.4
20260505171221 30 118 6.4 24.1 0.00 0.00 0.00 47 1006.5
20260505165123 28 105 9.7 24.1 0.00 0.00 0.00 49 1006.7
20260505164115 28 106 8.0 19.3 0.00 0.00 0.00 50 1006.8
20260505163115 28 119 6.4 19.3 0.00 0.00 0.00 50 1006.9
20260505162045 28 126 8.0 19.3 0.00 0.00 0.00 51 1007.1
20260505161102 27 130 4.8 20.9 0.00 0.00 0.00 51 1007.3
20260505153023 26 105 6.4 19.3 0.00 0.00 0.00 55 1007.9
20260505124341 18 98 3.2 12.9 0.00 0.00 0.00 77 1008.1
20260505123310 17 119 1.6 12.9 0.00 0.00 0.00 85 1008.2
20260505122247 16 94 0.0 0.0 0.00 0.00 0.00 90 1008.2
20260505121219 15 0 1.6 8.0 0.00 0.00 0.00 92 1008.3
20260505120155 14 108 0.0 1.6 0.00 0.00 0.00 92 1008.5
20260505115127 13 0 0.0 4.8 0.00 0.00 0.00 92 1008.6
20260505114123 13 0 0.0 0.0 0.00 0.00 0.00 92 1008.4
20260505110842 13 110 0.0 0.0 0.00 0.00 0.00 91 1008.3
20260505101804 11 94 0.0 0.0 0.00 0.00 0.00 88 1008.3
20260505100740 11 94 0.0 0.0 0.00 0.00 0.00 88 1008.1
20260505095710 11 94 0.0 0.0 0.00 0.00 0.00 87 1008.0
20260505093620 11 94 0.0 0.0 0.00 0.00 0.00 87 1007.6
20260505092630 11 94 0.0 0.0 0.00 0.00 0.00 86 1007.5
20260505091645 11 94 0.0 0.0 0.00 0.00 0.00 85 1007.5
20260505090636 12 94 0.0 0.0 0.00 0.00 0.00 85 1007.5
20260505085607 12 94 0.0 0.0 0.00 0.00 0.00 84 1007.5
20260505081133 12 94 0.0 0.0 0.00 0.00 0.00 80 1007.5
20260505080130 12 94 0.0 0.0 0.00 0.00 0.00 80 1007.5
20260505075140 12 94 0.0 0.0 0.00 0.00 0.00 79 1007.6
20260505074124 13 94 0.0 0.0 0.00 0.00 0.00 78 1007.6
20260505073125 13 94 0.0 0.0 0.00 0.00 0.00 77 1007.5
20260505072108 13 94 0.0 0.0 0.00 0.00 0.00 76 1007.6
20260505071128 13 94 0.0 0.0 0.00 0.00 0.00 75 1007.4
20260505070124 14 94 0.0 0.0 0.00 0.00 0.00 75 1007.5
20260505064008 15 95 0.0 0.0 0.00 0.00 0.00 74 1007.3
20260505062949 15 94 0.0 0.0 0.00 0.00 0.00 73 1007.5
20260505062010 15 94 0.0 0.0 0.00 0.00 0.00 72 1007.6
20260505055911 15 95 0.0 0.0 0.00 0.00 0.00 72 1007.6
20260505054857 15 96 0.0 0.0 0.00 0.00 0.00 71 1007.6
20260505053906 15 96 0.0 4.8 0.00 0.00 0.00 71 1007.7
20260505052902 16 103 0.0 6.4 0.00 0.00 0.00 70 1007.8
20260505051905 16 0 1.6 8.0 0.00 0.00 0.00 69 1007.9
20260505050922 16 90 0.0 8.0 0.00 0.00 0.00 68 1008.0
20260505041651 16 103 1.6 6.4 0.00 0.00 0.00 65 1008.0
20260505035436 17 118 3.2 9.7 0.00 0.00 0.00 64 1008.0
20260505034407 17 145 1.6 8.0 0.00 0.00 0.00 64 1008.0
20260505033430 17 0 1.6 8.0 0.00 0.00 0.00 63 1008.1
20260505032445 17 119 3.2 12.9 0.00 0.00 0.00 63 1008.0
20260505031503 17 98 0.0 8.0 0.00 0.00 0.00 62 1008.1
20260505030433 17 103 1.6 12.9 0.00 0.00 0.00 62 1008.1
20260505024302 17 101 0.0 6.4 0.00 0.00 0.00 61 1008.1
20260505023244 17 101 0.0 8.0 0.00 0.00 0.00 59 1008.0
20260505021115 18 0 0.0 1.6 0.00 0.00 0.00 55 1008.2
20260505015051 19 0 0.0 0.0 0.00 0.00 0.00 53 1008.0